This is the latest recevied weather packets stored in our database for station/object W2SRH. If no packets are shown the sender has not sent any weather packets the latest 10 day(s).
| Time | Temp. | Humidity | Pressure | Rain* | Wind** | Luminosity | Snow |
|---|---|---|---|---|---|---|---|
| 1787748582 | 21.11° C | 72% | 1011.2 hPa | 0 mm | 0 m/s | - | - |
| 1787748544 | 21.11° C | 72% | 1011.2 hPa | 0 mm | 0 m/s | - | - |
| 1787747944 | 21.11° C | 71% | 1011.3 hPa | 0 mm | 0.45 m/s, 21° | - | - |
| 1787747457 | 19.44° C | 77% | 1011.1 hPa | 0 mm | 0 m/s | - | - |
| 1787747344 | 20.56° C | 73% | 1011.1 hPa | 0 mm | 0 m/s | - | - |
| 1787746744 | 19.44° C | 75% | 1011.2 hPa | 0 mm | 0.45 m/s, 359° | - | - |
| 1787746144 | 19.44° C | 77% | 1011.1 hPa | 0 mm | 0 m/s | - | - |
| 1787745545 | 18.89° C | 78% | 1011.2 hPa | 0 mm | 0.45 m/s, 12° | - | - |
| 1787745541 | 18.33° C | 81% | 1011 hPa | 0 mm | 0.89 m/s, 355° | - | - |
| 1787745528 | 17.78° C | 83% | 1011 hPa | 0 mm | 0.45 m/s, 5° | - | - |
| 1787744977 | 18.33° C | 80% | 1011 hPa | 0 mm | 0.45 m/s, 6° | - | - |
| 1787744944 | 18.33° C | 80% | 1011 hPa | 0 mm | 0.45 m/s, 6° | - | - |
| 1787744343 | 18.33° C | 81% | 1011 hPa | 0 mm | 0.89 m/s, 355° | - | - |
| 1787743744 | 17.78° C | 83% | 1011 hPa | 0 mm | 0.45 m/s, 5° | - | - |
| 1787743625 | 17.22° C | 84% | 1010.9 hPa | 0 mm | 0 m/s | - | - |
| 1787743608 | 16.67° C | 87% | 1010.5 hPa | 0 mm | 0 m/s | - | - |
| 1787743145 | 17.22° C | 84% | 1010.9 hPa | 0 mm | 0 m/s | - | - |
| 1787742751 | 17.22° C | 86% | 1010.6 hPa | 0 mm | 0.45 m/s, 3° | - | - |
| 1787742543 | 17.22° C | 86% | 1010.6 hPa | 0 mm | 0.45 m/s, 3° | - | - |
| 1787741945 | 16.67° C | 87% | 1010.5 hPa | 0 mm | 0 m/s | - | - |
| 1787741702 | 16.67° C | 88% | 1010.3 hPa | 0 mm | 0.45 m/s, 342° | - | - |
| 1787741345 | 16.67° C | 88% | 1010.5 hPa | 0 mm | 0 m/s | - | - |
| 1787740786 | 16.67° C | 88% | 1010.3 hPa | 0 mm | 0.45 m/s, 342° | - | - |
| 1787740743 | 16.67° C | 88% | 1010.3 hPa | 0 mm | 0.45 m/s, 342° | - | - |
| 1787740143 | 16.67° C | 87% | 1010.3 hPa | 0 mm | 0 m/s | - | - |
* Rain latest hour (hover to see other rain measurements)
** Current wind speed in m/s (hover to see current wind gust speed)